Volk, WI

4:58 PM CDT on March 27, 2017 (GMT -0500)
Volk

Weather History for KVOK - November, 2013

Change the Weather History Date:

Monday, November 4, 2013

  Actual Average Record
Temperature  
Mean Temperature 46 °F -  
Max Temperature 50 °F 46 °F 73 °F (2008)
Min Temperature 43 °F 33 °F 15 °F (2011)
Degree Days  
Heating Degree Days 18    
Moisture  
Dew Point 41 °F    
Average Humidity 83    
Maximum Humidity 100    
Minimum Humidity 62    
Precipitation  
Precipitation 0.01 in - - ()
Sea Level Pressure  
Sea Level Pressure 30.07 in    
Wind  
Wind Speed 11 mph (South)    
Max Wind Speed 18 mph    
Max Gust Speed 25 mph    
Visibility 8 miles    
Events Rain    
Averages and records for this station are not official NWS values.
T = Trace of Precipitation, MM = Missing Value Source: NWS Daily Summary

Daily Weather History Graph

Daily Weather History Graph

Search for Another Location

Airport or City:

Trip Planner

Search our weather history database for the weather conditions in past years. The results will help you decide how hot, cold, wet, or windy it might be!

Date:

Astronomy

Nov. 04, 2013 Rise Set
Actual Time 6:41 AM CST 4:47 PM CST
Civil Twilight 6:11 AM CST 5:17 PM CST
Nautical Twilight 5:37 AM CST 5:51 PM CST
Astronomical Twilight 5:03 AM CST 6:25 PM CST
Moon 7:54 AM CST (11/4) 5:49 PM CST (11/4)
Length of Visible Light 11h 05m
Length of Day
10h 05m
New Moon, 2% of the Moon is Illuminated
Nov 4
New Moon
Nov 9
First Quarter
Nov 17
Full
Nov 25
Last Quarter
Dec 2
New

Hourly Weather History & Observations

Time (CST) Temp. Windchill Dew Point Humidity Pressure Visibility Wind Dir Wind Speed Gust Speed Precip Events Conditions
12:58 AM 43.9 °F 37.5 °F 33.3 °F 66% 30.14 in 10.0 mi SE 12.7 mph 19.6 mph N/A   Partly Cloudy
1:58 AM 43.7 °F 36.9 °F 33.6 °F 68% 30.12 in 10.0 mi SE 13.8 mph 21.9 mph N/A   Scattered Clouds
2:58 AM 43.2 °F 37.0 °F 34.0 °F 70% 30.11 in 10.0 mi SE 11.5 mph 21.9 mph N/A   Overcast
3:58 AM 43.7 °F 36.3 °F 34.2 °F 69% 30.09 in 10.0 mi SE 16.1 mph 23.0 mph N/A   Overcast
4:58 AM 44.1 °F 36.8 °F 34.2 °F 68% 30.08 in 10.0 mi SSE 16.1 mph 25.3 mph N/A   Scattered Clouds
5:58 AM 44.2 °F 37.3 °F 34.0 °F 67% 30.06 in 10.0 mi SE 15.0 mph - N/A   Clear
6:58 AM 44.6 °F 38.8 °F 34.0 °F 66% 30.06 in 10.0 mi SSE 11.5 mph 21.9 mph N/A   Mostly Cloudy
7:58 AM 46.4 °F 40.7 °F 33.8 °F 62% 30.06 in 10.0 mi SE 12.7 mph 19.6 mph N/A   Overcast
8:58 AM 46.4 °F 40.1 °F 35.6 °F 66% 30.06 in 10.0 mi SSE 15.0 mph 25.3 mph N/A   Overcast
9:58 AM 48.2 °F - 35.6 °F 62% 30.06 in 10.0 mi South 15.0 mph 21.9 mph N/A   Overcast
10:58 AM 50.0 °F - 37.4 °F 62% 30.04 in 10.0 mi SSE 18.4 mph 25.3 mph N/A   Overcast
11:58 AM 50.0 °F - 37.4 °F 62% 30.02 in 10.0 mi SSE 15.0 mph - N/A   Overcast
12:58 PM 50.0 °F - 37.4 °F 62% 30.00 in 10.0 mi South 13.8 mph 19.6 mph N/A   Overcast
1:58 PM 50.5 °F - 38.5 °F 63% 30.01 in 10.0 mi South 9.2 mph - N/A   Overcast
2:58 PM 50.0 °F - 39.2 °F 66% 30.03 in 10.0 mi South 5.8 mph - N/A   Overcast
3:03 PM 50.0 °F - 41.0 °F 71% 30.00 in 6.0 mi SSW 10.4 mph - N/A Rain Light Rain
3:29 PM 46.4 °F 42.4 °F 44.6 °F 93% 30.00 in 7.0 mi South 8.1 mph - N/A   Mostly Cloudy
3:58 PM 46.4 °F 42.9 °F 44.6 °F 93% 30.04 in 6.0 mi South 6.9 mph - N/A Rain Light Rain
4:16 PM 46.4 °F 41.5 °F 44.6 °F 93% 30.01 in 6.0 mi South 10.4 mph - N/A   Overcast
4:58 PM 46.4 °F 41.9 °F 46.4 °F 100% 30.05 in 6.0 mi South 9.2 mph - N/A   Overcast
5:11 PM 46.4 °F 41.9 °F 46.4 °F 100% 30.02 in 7.0 mi South 9.2 mph - N/A   Overcast
5:58 PM 46.4 °F 42.4 °F 46.4 °F 100% 30.07 in 7.0 mi South 8.1 mph - N/A   Overcast
6:52 PM 46.4 °F 42.9 °F 46.4 °F 100% 30.05 in 5.0 mi South 6.9 mph - N/A   Overcast
6:58 PM 46.4 °F 42.9 °F 46.4 °F 100% 30.08 in 5.0 mi South 6.9 mph - N/A   Overcast
7:58 PM 46.4 °F 42.9 °F 46.4 °F 100% 30.10 in 5.0 mi South 6.9 mph - N/A   Overcast
8:58 PM 46.4 °F 43.5 °F 46.4 °F 100% 30.12 in 4.0 mi South 5.8 mph - N/A   Overcast
9:25 PM 46.4 °F 43.5 °F 46.4 °F 100% 30.10 in 7.0 mi SSW 5.8 mph - N/A   Mostly Cloudy
9:30 PM 46.4 °F 44.3 °F 46.4 °F 100% 30.11 in 7.0 mi SSW 4.6 mph - N/A   Overcast
9:58 PM 46.4 °F 44.3 °F 46.4 °F 100% 30.14 in 7.0 mi SSW 4.6 mph - N/A   Overcast
10:53 PM 46.4 °F 43.5 °F 46.4 °F 100% 30.12 in 6.0 mi SW 5.8 mph - N/A   Light Drizzle
10:58 PM 46.4 °F 43.5 °F 46.4 °F 100% 30.14 in 6.0 mi SW 5.8 mph - N/A   Light Drizzle
11:40 PM 46.4 °F 44.3 °F 46.4 °F 100% 30.14 in 8.0 mi NW 4.6 mph - N/A   Overcast
11:58 PM 46.4 °F 43.5 °F 46.4 °F 100% 30.17 in 10.0 mi WNW 5.8 mph - N/A   Overcast